When you browse on this site, cookies collect data to enhance your experience and personalize the content and advertising you see.
Visit our Privacy Policy to learn more. By continuing to use the site, you agree to this use of cookies and data.
  • en Suisse
  • Liste des pays
  • À 7 jours
  • Température de l'eau
  • Carte météo
  • Widgets météo
  • user-avatar
    Se connecter

    Météo par heure à Zalaegerszeg

    Ce jour, 4 Avril, Samedi

    Heure Température Précipitation Vent Pression Humidité
    00:00 +5°C° 0 mm 3 m/s 750 mmHg 79%
    01:00 +5°C° 0 mm 2 m/s 750 mmHg 81%
    02:00 +5°C° 0 mm 2 m/s 750 mmHg 83%
    03:00 +5°C° 0 mm 2 m/s 751 mmHg 84%
    04:00 +4°C° 0 mm 2 m/s 751 mmHg 86%
    05:00 +4°C° 0 mm 3 m/s 751 mmHg 82%
    06:00 +5°C° 0 mm 3 m/s 752 mmHg 79%
    07:00 +6°C° 0 mm 4 m/s 752 mmHg 75%
    08:00 +7°C° 0 mm 4 m/s 753 mmHg 64%
    09:00 +9°C° 0 mm 5 m/s 753 mmHg 54%
    10:00 +11°C° 0 mm 6 m/s 753 mmHg 43%
    11:00 +13°C° 0 mm 6 m/s 753 mmHg 42%
    12:00 +14°C° 0 mm 6 m/s 753 mmHg 41%
    13:00 +14°C° 0 mm 6 m/s 753 mmHg 39%
    14:00 +14°C° 0 mm 5 m/s 753 mmHg 40%
    15:00 +14°C° 0 mm 5 m/s 752 mmHg 41%
    16:00 +14°C° 0 mm 5 m/s 752 mmHg 42%
    17:00 +12°C° 0 mm 4 m/s 753 mmHg 48%
    18:00 +11°C° 0 mm 4 m/s 753 mmHg 54%
    19:00 +9°C° 0 mm 3 m/s 753 mmHg 60%
    20:00 +8°C° 0 mm 3 m/s 754 mmHg 63%
    21:00 +8°C° 0 mm 3 m/s 755 mmHg 66%
    22:00 +7°C° 0 mm 3 m/s 755 mmHg 69%
    23:00 +5°C° 0 mm 3 m/s 756 mmHg 70%

    Demain, 5 Avril, Dimanche

    Heure Température Précipitation Vent Pression Humidité
    00:00 +5°C° 0 mm 3 m/s 756 mmHg 72%
    01:00 +5°C° 0 mm 2 m/s 756 mmHg 74%
    02:00 +5°C° 0 mm 2 m/s 756 mmHg 74%
    03:00 +4°C° 0 mm 2 m/s 756 mmHg 74%
    04:00 +4°C° 0 mm 2 m/s 756 mmHg 74%
    05:00 +4°C° 0 mm 3 m/s 757 mmHg 71%
    06:00 +4°C° 0 mm 3 m/s 757 mmHg 67%
    07:00 +5°C° 0 mm 3 m/s 757 mmHg 63%
    08:00 +8°C° 0 mm 3 m/s 757 mmHg 58%
    09:00 +10°C° 0 mm 3 m/s 757 mmHg 52%
    10:00 +12°C° 0 mm 3 m/s 758 mmHg 47%
    11:00 +13°C° 0 mm 3 m/s 757 mmHg 46%
    12:00 +14°C° 0 mm 3 m/s 757 mmHg 44%
    13:00 +16°C° 0 mm 3 m/s 757 mmHg 43%
    14:00 +15°C° 0 mm 4 m/s 756 mmHg 43%
    15:00 +17°C° 0 mm 4 m/s 756 mmHg 43%
    16:00 +17°C° 0 mm 4 m/s 756 mmHg 43%
    17:00 +14°C° 0 mm 3 m/s 756 mmHg 50%
    18:00 +12°C° 0 mm 3 m/s 756 mmHg 56%
    19:00 +10°C° 0 mm 2 m/s 756 mmHg 63%
    20:00 +9°C° 0 mm 2 m/s 757 mmHg 67%
    21:00 +9°C° 0 mm 2 m/s 757 mmHg 70%
    22:00 +8°C° 0 mm 2 m/s 758 mmHg 74%
    23:00 +8°C° 0 mm 2 m/s 758 mmHg 76%

    Après-demain, 6 Avril, Lundi

    Heure Température Précipitation Vent Pression Humidité
    00:00 +7°C° 0 mm 2 m/s 758 mmHg 78%
    01:00 +7°C° 0 mm 2 m/s 758 mmHg 80%
    02:00 +6°C° 0 mm 2 m/s 758 mmHg 81%
    03:00 +7°C° 0 mm 1 m/s 758 mmHg 83%
    04:00 +6°C° 0 mm 1 m/s 758 mmHg 84%
    05:00 +6°C° 0 mm 2 m/s 758 mmHg 80%
    06:00 +7°C° 0 mm 2 m/s 758 mmHg 76%
    07:00 +8°C° 0 mm 3 m/s 758 mmHg 72%
    08:00 +10°C° 0 mm 4 m/s 759 mmHg 61%
    09:00 +12°C° 0 mm 4 m/s 759 mmHg 50%
    10:00 +13°C° 0 mm 5 m/s 759 mmHg 39%
    11:00 +14°C° 0 mm 5 m/s 759 mmHg 38%
    12:00 +15°C° 0 mm 5 m/s 759 mmHg 37%
    13:00 +15°C° 0 mm 5 m/s 759 mmHg 36%
    14:00 +15°C° 0 mm 5 m/s 758 mmHg 37%
    15:00 +15°C° 0 mm 5 m/s 758 mmHg 37%
    16:00 +15°C° 0 mm 5 m/s 758 mmHg 37%
    17:00 +13°C° 0 mm 4 m/s 758 mmHg 41%
    18:00 +11°C° 0 mm 3 m/s 758 mmHg 45%
    19:00 +9°C° 0 mm 2 m/s 758 mmHg 49%
    20:00 +8°C° 0 mm 2 m/s 759 mmHg 52%
    21:00 +8°C° 0 mm 1 m/s 759 mmHg 55%
    22:00 +8°C° 0 mm 1 m/s 760 mmHg 59%
    23:00 +7°C° 0 mm 1 m/s 760 mmHg 62%

    7 Avril, Mardi

    Heure Température Précipitation Vent Pression Humidité
    00:00 +7°C° 0 mm 1 m/s 760 mmHg 64%
    01:00 +6°C° 0 mm 1 m/s 760 mmHg 67%
    02:00 +6°C° 0 mm 1 m/s 760 mmHg 68%
    03:00 +5°C° 0 mm 1 m/s 760 mmHg 68%
    04:00 +5°C° 0 mm 1 m/s 760 mmHg 68%
    05:00 +6°C° 0 mm 1 m/s 760 mmHg 65%
    06:00 +6°C° 0 mm 1 m/s 760 mmHg 62%
    07:00 +7°C° 0 mm 1 m/s 760 mmHg 59%
    08:00 +8°C° 0 mm 2 m/s 761 mmHg 51%
    09:00 +12°C° 0 mm 2 m/s 761 mmHg 43%
    10:00 +13°C° 0 mm 3 m/s 761 mmHg 36%
    11:00 +14°C° 0 mm 3 m/s 761 mmHg 34%
    12:00 +16°C° 0 mm 3 m/s 760 mmHg 32%
    13:00 +17°C° 0 mm 4 m/s 760 mmHg 30%
    14:00 +17°C° 0 mm 3 m/s 760 mmHg 32%
    15:00 +17°C° 0 mm 3 m/s 760 mmHg 33%
    16:00 +17°C° 0 mm 3 m/s 759 mmHg 34%
    17:00 +14°C° 0 mm 3 m/s 759 mmHg 41%
    18:00 +13°C° 0 mm 2 m/s 759 mmHg 47%
    19:00 +10°C° 0 mm 2 m/s 759 mmHg 53%
    20:00 +10°C° 0 mm 1 m/s 760 mmHg 55%
    21:00 +9°C° 0 mm 1 m/s 760 mmHg 57%
    22:00 +9°C° 0 mm 1 m/s 760 mmHg 60%
    23:00 +8°C° 0 mm 1 m/s 760 mmHg 61%

    8 Avril, Mercredi

    Heure Température Précipitation Vent Pression Humidité
    00:00 +8°C° 0 mm 1 m/s 760 mmHg 63%
    01:00 +7°C° 0 mm 1 m/s 760 mmHg 65%
    02:00 +6°C° 0 mm 0 m/s 760 mmHg 66%
    03:00 +6°C° 0 mm 0 m/s 760 mmHg 68%
    04:00 +5°C° 0 mm 0 m/s 760 mmHg 69%
    05:00 +6°C° 0 mm 0 m/s 760 mmHg 66%
    06:00 +7°C° 0 mm 0 m/s 760 mmHg 63%
    07:00 +8°C° 0 mm 0 m/s 760 mmHg 60%
    08:00 +11°C° 0 mm 0 m/s 759 mmHg 53%
    09:00 +14°C° 0 mm 1 m/s 759 mmHg 46%
    10:00 +16°C° 0 mm 1 m/s 759 mmHg 38%
    11:00 +18°C° 0 mm 1 m/s 758 mmHg 36%
    12:00 +18°C° 0 mm 2 m/s 758 mmHg 34%
    13:00 +18°C° 0 mm 2 m/s 757 mmHg 32%
    14:00 +18°C° 0 mm 2 m/s 757 mmHg 32%
    15:00 +18°C° 0 mm 2 m/s 757 mmHg 33%
    16:00 +18°C° 0 mm 2 m/s 756 mmHg 34%
    17:00 +16°C° 0 mm 2 m/s 756 mmHg 39%
    18:00 +14°C° 0 mm 1 m/s 756 mmHg 45%
    19:00 +12°C° 0 mm 1 m/s 756 mmHg 50%
    20:00 +12°C° 0 mm 1 m/s 756 mmHg 52%
    21:00 +11°C° 0 mm 1 m/s 756 mmHg 54%
    22:00 +10°C° 0 mm 1 m/s 757 mmHg 56%
    23:00 +10°C° 0 mm 1 m/s 756 mmHg 59%

    9 Avril, Jeudi

    Heure Température Précipitation Vent Pression Humidité
    00:00 +9°C° 0 mm 1 m/s 756 mmHg 61%
    01:00 +9°C° 0 mm 1 m/s 756 mmHg 63%
    02:00 +8°C° 0 mm 1 m/s 756 mmHg 64%
    03:00 +8°C° 0 mm 1 m/s 756 mmHg 65%
    04:00 +8°C° 0 mm 1 m/s 756 mmHg 67%
    05:00 +9°C° 0 mm 1 m/s 756 mmHg 64%
    06:00 +10°C° 0 mm 1 m/s 756 mmHg 61%
    07:00 +11°C° 0 mm 1 m/s 756 mmHg 59%
    08:00 +13°C° 0 mm 1 m/s 756 mmHg 52%
    09:00 +16°C° 0 mm 1 m/s 756 mmHg 46%
    10:00 +19°C° 0 mm 1 m/s 756 mmHg 40%
    11:00 +20°C° 0 mm 1 m/s 756 mmHg 37%
    12:00 +21°C° 0 mm 1 m/s 755 mmHg 34%
    13:00 +22°C° 0 mm 1 m/s 755 mmHg 31%
    14:00 +22°C° 0 mm 1 m/s 755 mmHg 31%
    15:00 +22°C° 0 mm 1 m/s 754 mmHg 31%
    16:00 +21°C° 0 mm 1 m/s 754 mmHg 31%
    17:00 +19°C° 0 mm 1 m/s 754 mmHg 37%
    18:00 +16°C° 0 mm 1 m/s 754 mmHg 42%
    19:00 +14°C° 0 mm 1 m/s 754 mmHg 47%
    20:00 +13°C° 0 mm 1 m/s 754 mmHg 49%
    21:00 +12°C° 0 mm 1 m/s 754 mmHg 51%
    22:00 +12°C° 0 mm 1 m/s 755 mmHg 53%
    23:00 +11°C° 0 mm 1 m/s 755 mmHg 55%
    Voir plus